Vorticity
3 3 2 2 1 7 8 7 8 4 3 6 7 8 9 6 5 7 5 3 6 9 7 -4 10 13 12 26 22 5 5 4 5 10 5 0 6 12 3 -1 0 1 6
6 5 5 -2 -1 6 7 5 4 8 1 5 9 8 8 8 3 5 6 6 7 10 8 9 4 7 8 -0 8 -25 16 3 3 2 4 4 3 5 6 5 15 10 5
6 10 17 22 19 0 7 5 5 6 7 4 4 10 9 4 5 4 6 6 8 13 10 -0 10 14 7 5 17 45 16 10 7 9 3 6 4 -3 -0 5 12 6 3
7 6 -9 -6 7 12 4 5 5 3 7 5 5 10 10 7 7 4 5 6 11 11 1 19 3 16 7 -2 -8 34 19 13 8 3 -1 5 3 3 6 2 8 14 13
7 9 4 6 6 1 4 1 4 8 8 4 7 6 13 8 5 4 6 8 9 12 10 2 15 16 9 17 15 -6 2 -4 5 4 14 6 -0 6 6 3 2 6 6
7 6 9 4 9 6 7 7 1 5 6 7 5 8 10 12 3 2 4 8 11 9 3 23 24 14 -3 6 15 -3 74 -7 17 3 14 5 2 -4 1 3 3 3 7
8 6 8 7 8 6 6 4 4 4 6 5 7 8 12 7 4 1 7 5 10 9 5 26 14 0 18 7 21 9 23 -0 12 12 8 4 5 6 -1 1 4 3 4
9 11 8 9 10 8 6 6 4 4 6 6 4 6 14 7 7 2 8 7 9 5 2 -5 26 -0 10 22 20 27 46 15 5 23 19 4 4 2 2 2 4 3 3
9 11 11 10 8 11 9 7 7 6 6 5 5 6 10 10 5 4 8 6 7 9 8 7 25 5 7 13 19 7 -2 10 8 12 5 9 2 5 3 3 2 3 5
13 11 11 17 9 9 7 8 5 6 4 6 8 6 8 12 6 2 6 9 5 4 9 6 2 17 2 8 38 28 42 0 -4 7 -12 15 6 5 4 3 2 3 4
8 6 6 7 12 8 13 7 7 7 5 4 5 5 9 9 7 5 6 6 6 7 6 4 7 8 6 2 21 12 15 6 -1 16 -8 11 7 5 4 5 3 3 1
3 3 6 9 10 9 8 12 9 9 6 4 4 5 10 5 8 2 4 10 2 5 6 7 8 9 12 4 4 13 25 24 19 17 -5 5 7 6 6 5 2 3 4
8 5 4 8 6 8 9 9 9 9 11 7 6 6 5 7 14 1 1 6 6 5 4 7 8 11 11 10 5 6 -1 47 -25 36 -1 5 5 11 7 9 6 7 4
9 11 11 12 73 4 5 8 11 13 8 8 9 6 20 6 4 5 -1 6 7 6 4 3 8 13 14 13 9 6 7 5 8 3 16 18 -2 7 3 3 8 3 7
9 10 7 4 4 9 11 9 9 7 13 8 8 -2 9 -4 19 11 4 5 7 4 6 6 3 12 10 5 15 6 8 10 8 10 10 19 17 2 4 7 7 8 3
33 26 17 4 6 10 13 10 10 8 11 6 14 10 5 10 4 40 9 -3 8 7 3 7 6 6 12 10 7 11 11 8 17 9 7 12 13 7 3 6 0 5 4
20 14 19 34 8 15 14 10 10 11 8 9 6 10 14 4 20 19 10 4 4 4 4 5 4 7 14 12 12 8 6 10 1 17 15 11 7 3 13 11 -2 -1 3
18 15 20 29 24 21 18 11 11 6 6 8 9 10 11 12 9 10 40 3 6 3 5 2 4 4 7 15 13 13 8 8 1 5 19 16 19 6 8 7 6 -1 17
27 30 14 21 26 19 18 11 10 6 9 8 7 7 5 6 4 -4 23 -2 3 6 4 3 8 5 8 11 16 14 13 11 12 14 6 9 13 16 11 16 18 18 14
32 51 17 28 19 24 5 14 8 6 8 8 7 7 5 5 10 -10 -13 48 5 1 4 3 7 4 8 11 12 16 13 6 6 9 14 4 11 19 4 -9 -0 2 4
19 43 53 -11 16 6 16 24 7 7 10 10 8 6 4 8 9 42 30 9 -2 5 4 5 8 5 8 5 10 7 5 3 8 11 0 9 2 13 19 18 12 9 8
14 24 33 2 12 22 2 14 13 15 11 7 16 11 12 18 8 3 32 -1 8 2 6 7 8 7 8 5 5 11 -3 35 34 5 13 14 10 10 17 9 8 9 20
-11 17 18 25 8 11 7 7 7 12 4 5 5 13 -1 13 19 -8 6 23 7 6 7 7 6 7 5 6 9 2 -3 22 7 20 3 7 19 20 5 11 12 8 10
7 13 3 18 32 25 16 1 5 -0 17 19 3 17 5 7 2 20 0 -2 19 1 8 5 4 9 5 4 1 16 2 29 16 12 29 18 -1 13 -2 8 -1 1 10
20 21 1 -9 -5 6 21 29 30 30 29 24 23 22 12 9 12 -14 7 13 5 17 8 2 4 8 6 10 3 7 10 7 20 11 20 -1 0 -3 20 8 7 15 12
11 17 23 25 23 -6 2 12 9 37 -11 36 18 10 6 9 9 -12 30 11 -8 16 -9 7 4 8 8 9 8 5 9 14 -3 13 22 16 14 12 11 29 7 10 17
Height
5794 5794 5795 5795 5798 5800 5801 5802 5803 5804 5804 5803 5800 5800 5800 5802 5802 5801 5796 5794 5792 5791 5792 5794 5793 5797 5796 5796 5793 5798 5800 5806 5808 5811 5815 5819 5822 5822 5823 5825 5827 5829 5831
5788 5788 5789 5789 5791 5793 5793 5795 5797 5798 5799 5798 5796 5793 5793 5796 5797 5796 5795 5793 5791 5790 5788 5789 5790 5794 5793 5791 5782 5786 5796 5799 5803 5807 5811 5815 5818 5819 5820 5822 5824 5825 5827
5780 5782 5782 5781 5782 5784 5787 5788 5789 5790 5792 5792 5792 5788 5787 5789 5790 5790 5790 5790 5786 5784 5782 5783 5783 5785 5787 5786 5787 5784 5788 5793 5797 5803 5807 5810 5814 5816 5817 5818 5820 5821 5823
5772 5773 5774 5775 5775 5775 5779 5780 5781 5782 5783 5785 5785 5784 5782 5782 5783 5783 5783 5781 5782 5777 5777 5777 5777 5778 5779 5779 5781 5777 5779 5786 5790 5797 5801 5804 5809 5812 5814 5815 5816 5818 5819
5763 5764 5766 5767 5766 5768 5767 5772 5773 5773 5775 5776 5779 5777 5776 5774 5776 5776 5775 5773 5774 5773 5772 5771 5769 5770 5772 5771 5771 5772 5775 5780 5785 5791 5796 5799 5804 5807 5809 5811 5812 5814 5816
5751 5754 5756 5760 5760 5759 5760 5760 5764 5764 5767 5768 5771 5771 5770 5769 5769 5769 5768 5766 5766 5765 5767 5765 5762 5763 5765 5765 5764 5766 5764 5774 5780 5785 5789 5793 5798 5802 5805 5807 5807 5810 5812
5740 5742 5745 5747 5752 5752 5752 5750 5752 5755 5758 5759 5761 5764 5764 5763 5763 5763 5761 5760 5761 5760 5761 5759 5758 5757 5758 5757 5757 5759 5762 5768 5773 5778 5782 5788 5793 5797 5800 5802 5803 5805 5807
5725 5729 5732 5735 5739 5742 5742 5743 5742 5747 5748 5750 5752 5754 5757 5758 5757 5755 5754 5754 5754 5755 5754 5753 5752 5753 5750 5750 5751 5751 5753 5759 5766 5771 5776 5783 5787 5791 5794 5796 5797 5799 5803
5711 5713 5719 5721 5723 5727 5730 5733 5734 5735 5739 5740 5742 5745 5748 5751 5750 5749 5749 5747 5747 5749 5749 5748 5747 5749 5747 5745 5744 5748 5752 5753 5761 5767 5771 5777 5781 5783 5786 5789 5791 5793 5797
5699 5701 5703 5708 5710 5713 5716 5720 5723 5725 5727 5729 5732 5738 5740 5741 5743 5742 5741 5742 5741 5743 5743 5745 5743 5743 5743 5742 5740 5742 5745 5751 5757 5761 5766 5770 5773 5777 5780 5783 5784 5787 5790
5687 5689 5692 5693 5697 5700 5703 5707 5710 5713 5716 5719 5723 5727 5730 5732 5735 5735 5734 5735 5735 5735 5736 5737 5738 5738 5738 5738 5738 5740 5743 5746 5751 5755 5760 5764 5768 5770 5774 5776 5778 5780 5784
5672 5676 5678 5679 5681 5686 5689 5694 5698 5702 5705 5707 5711 5714 5720 5722 5725 5726 5726 5726 5728 5729 5730 5731 5731 5731 5733 5734 5736 5736 5739 5741 5744 5747 5752 5756 5760 5763 5766 5768 5770 5773 5776
5657 5662 5663 5666 5667 5672 5677 5681 5685 5690 5694 5695 5700 5704 5708 5711 5714 5716 5719 5719 5718 5720 5724 5723 5724 5725 5725 5727 5728 5731 5732 5733 5735 5739 5744 5748 5751 5754 5757 5759 5762 5763 5765
5639 5643 5647 5652 5637 5653 5663 5667 5671 5677 5682 5684 5687 5690 5696 5703 5704 5708 5710 5711 5712 5712 5716 5717 5716 5717 5717 5719 5720 5721 5724 5727 5729 5731 5735 5738 5742 5745 5747 5750 5752 5753 5755
5621 5624 5627 5633 5639 5643 5649 5654 5658 5664 5669 5673 5674 5678 5683 5689 5690 5695 5701 5703 5704 5706 5707 5709 5708 5708 5709 5711 5711 5714 5716 5718 5721 5724 5727 5729 5731 5735 5737 5740 5742 5745 5746
5597 5600 5606 5612 5622 5628 5635 5640 5646 5651 5657 5660 5664 5666 5671 5675 5669 5672 5687 5693 5695 5697 5699 5700 5701 5702 5700 5701 5703 5705 5707 5709 5710 5713 5716 5718 5721 5725 5728 5730 5733 5735 5736
5580 5583 5588 5594 5604 5611 5620 5626 5635 5640 5645 5648 5651 5657 5660 5667 5665 5663 5676 5682 5685 5687 5690 5691 5693 5694 5695 5693 5693 5695 5697 5699 5701 5703 5705 5708 5711 5715 5718 5720 5722 5724 5726
5567 5571 5574 5579 5587 5598 5606 5615 5622 5626 5633 5637 5642 5648 5654 5654 5657 5662 5666 5672 5676 5676 5680 5683 5684 5683 5684 5687 5684 5684 5687 5690 5693 5694 5695 5697 5700 5703 5706 5708 5710 5712 5715
5556 5557 5560 5567 5575 5585 5592 5602 5610 5614 5622 5627 5633 5639 5643 5647 5651 5654 5656 5662 5665 5667 5669 5673 5676 5674 5674 5674 5675 5676 5677 5681 5683 5684 5685 5687 5689 5692 5694 5697 5698 5700 5701
5546 5543 5547 5557 5563 5573 5582 5592 5599 5605 5611 5616 5622 5626 5631 5636 5641 5644 5646 5649 5655 5658 5660 5662 5665 5665 5666 5666 5664 5665 5666 5667 5670 5673 5674 5677 5678 5679 5681 5684 5686 5688 5689
5535 5531 5531 5554 5560 5566 5569 5582 5589 5596 5602 5605 5612 5616 5621 5626 5629 5632 5636 5640 5646 5649 5651 5653 5654 5655 5657 5657 5657 5657 5657 5657 5657 5660 5663 5664 5666 5666 5669 5672 5675 5677 5677
5534 5538 5542 5547 5556 5562 5571 5575 5582 5586 5593 5601 5605 5608 5612 5617 5621 5626 5630 5633 5636 5639 5641 5642 5643 5645 5647 5646 5646 5647 5647 5643 5644 5647 5650 5652 5655 5656 5659 5662 5664 5665 5664
5534 5536 5540 5546 5551 5557 5563 5566 5571 5578 5585 5588 5593 5599 5603 5608 5613 5617 5621 5623 5626 5629 5630 5631 5632 5633 5635 5634 5636 5637 5637 5634 5635 5637 5639 5641 5643 5645 5648 5651 5651 5652 5652
5530 5533 5536 5540 5544 5549 5552 5557 5564 5569 5574 5578 5583 5588 5595 5599 5603 5606 5609 5612 5615 5618 5619 5619 5621 5623 5624 5623 5626 5627 5627 5626 5626 5626 5627 5629 5633 5634 5637 5639 5640 5640 5641
5527 5530 5532 5535 5538 5542 5546 5550 5555 5559 5564 5571 5576 5580 5584 5587 5592 5595 5598 5601 5603 5605 5607 5608 5610 5611 5612 5612 5614 5617 5618 5617 5615 5616 5618 5621 5622 5624 5626 5628 5628 5630 5630
5524 5525 5528 5530 5532 5536 5539 5543 5547 5546 5552 5562 5567 5569 5574 5577 5579 5582 5585 5588 5591 5593 5595 5596 5598 5599 5600 5601 5603 5605 5606 5607 5607 5606 5608 5610 5612 5613 5613 5616 5617 5617 5618